Cherokee, IA

7:27 PM CST on December 11, 2017 (GMT -0600)
Cherokee Municipal

Weather History for KCKP - April, 2014

Change the Weather History Date:

Monday, April 28, 2014

  Actual Average Record
Temperature  
Mean Temperature 50 °F -  
Max Temperature 57 °F 66 °F 89 °F (1981)
Min Temperature 44 °F 39 °F 22 °F (1961)
Degree Days  
Heating Degree Days 14    
Moisture  
Dew Point 50 °F    
Average Humidity 99    
Maximum Humidity 100    
Minimum Humidity 94    
Precipitation  
Precipitation 0.08 in - - ()
Sea Level Pressure  
Sea Level Pressure 29.36 in    
Wind  
Wind Speed 19 mph (East)    
Max Wind Speed 24 mph    
Max Gust Speed 41 mph    
Visibility 5 miles    
Events Rain , Thunderstorm    
Averages and records for this station are not official NWS values.
T = Trace of Precipitation, MM = Missing Value Source: NWS Daily Summary

Daily Weather History Graph

Daily Weather History Graph

Search for Another Location

Airport or City:

Trip Planner

Search our weather history database for the weather conditions in past years. The results will help you decide how hot, cold, wet, or windy it might be!

Date:

Astronomy

Apr. 28, 2014 Rise Set
Actual Time 6:20 AM CDT 8:19 PM CDT
Civil Twilight 5:50 AM CDT 8:49 PM CDT
Nautical Twilight 5:12 AM CDT 9:27 PM CDT
Astronomical Twilight 4:32 AM CDT 10:08 PM CDT
Moon 6:01 AM CDT (4/28) 7:57 PM CDT (4/28)
Length of Visible Light 14h 59m
Length of Day
13h 58m
Waning Crescent, 0% of the Moon is Illuminated
Apr 28
Waning Crescent
Apr 29
New
May 6
First Quarter
May 14
Full
May 21
Last Quarter

Hourly Weather History & Observations

Time (CDT) Temp. Windchill Dew Point Humidity Pressure Visibility Wind Dir Wind Speed Gust Speed Precip Events Conditions
12:15 AM 57.2 °F - 56.3 °F 97% 29.39 in 10.0 mi ESE 24.2 mph 33.4 mph N/A   Overcast
12:35 AM 57.6 °F - 56.7 °F 97% 29.38 in 10.0 mi ESE 21.9 mph 32.2 mph N/A   Overcast
12:55 AM 57.4 °F - 56.5 °F 97% 29.38 in 10.0 mi ESE 20.7 mph 28.8 mph N/A   Overcast
1:15 AM 57.2 °F - 55.9 °F 96% 29.38 in 10.0 mi ESE 18.4 mph 29.9 mph N/A   Overcast
1:35 AM 56.3 °F - 55.4 °F 97% 29.37 in 10.0 mi ESE 19.6 mph 24.2 mph N/A   Mostly Cloudy
1:55 AM 55.6 °F - 54.5 °F 96% 29.36 in 10.0 mi ESE 18.4 mph 28.8 mph N/A   Scattered Clouds
2:15 AM 55.4 °F - 54.0 °F 95% 29.35 in 10.0 mi ESE 17.3 mph 29.9 mph N/A   Scattered Clouds
2:35 AM 54.5 °F - 53.1 °F 95% 29.34 in 10.0 mi ESE 17.3 mph 25.3 mph N/A   Clear
2:55 AM 54.5 °F - 52.9 °F 94% 29.34 in 10.0 mi East 23.0 mph 31.1 mph N/A   Clear
3:15 AM 54.0 °F - 52.3 °F 94% 29.34 in 10.0 mi East 20.7 mph 32.2 mph N/A   Scattered Clouds
3:35 AM 53.8 °F - 52.0 °F 94% 29.34 in 10.0 mi ESE 23.0 mph 31.1 mph N/A   Mostly Cloudy
3:55 AM 52.9 °F - 51.1 °F 94% 29.34 in 10.0 mi East 19.6 mph 31.1 mph N/A   Overcast
4:15 AM 52.2 °F - 50.9 °F 95% 29.33 in 10.0 mi East 17.3 mph 25.3 mph N/A   Overcast
4:35 AM 51.8 °F - 50.9 °F 97% 29.32 in 10.0 mi East 18.4 mph 25.3 mph N/A   Overcast
4:55 AM 51.8 °F - 50.9 °F 97% 29.32 in 10.0 mi East 16.1 mph 24.2 mph N/A   Overcast
5:15 AM 51.8 °F - 51.3 °F 98% 29.31 in 5.0 mi East 15.0 mph 21.9 mph N/A   Overcast
5:35 AM 51.8 °F - 51.4 °F 99% 29.30 in 5.0 mi East 16.1 mph 20.7 mph N/A   Overcast
5:55 AM 52.0 °F - 51.8 °F 99% 29.31 in 7.0 mi East 13.8 mph 23.0 mph N/A   Overcast
6:15 AM 52.9 °F - 52.9 °F 100% 29.32 in 7.0 mi ESE 13.8 mph 23.0 mph N/A   Overcast
6:35 AM 53.4 °F - 53.1 °F 99% 29.33 in 5.0 mi East 18.4 mph 25.3 mph N/A   Overcast
6:55 AM 52.3 °F - 52.0 °F 99% 29.33 in 2.0 mi East 19.6 mph 25.3 mph N/A Rain Rain
7:15 AM 51.6 °F - 51.3 °F 99% 29.33 in 1.8 mi East 13.8 mph 25.3 mph N/A   Overcast
7:35 AM 51.1 °F - 51.1 °F 100% 29.33 in 1.5 mi East 16.1 mph 24.2 mph N/A   Overcast
7:55 AM 50.9 °F - 50.9 °F 100% 29.33 in 2.5 mi East 17.3 mph 24.2 mph N/A   Overcast
8:15 AM 50.9 °F - 50.9 °F 100% 29.33 in 2.0 mi East 17.3 mph 25.3 mph N/A   Overcast
8:35 AM 50.7 °F - 50.7 °F 100% 29.32 in 1.5 mi East 18.4 mph 25.3 mph N/A   Overcast
9:15 AM 50.0 °F - 50.0 °F 100% 29.32 in 1.5 mi East 16.1 mph 27.6 mph N/A Rain Light Rain
9:35 AM 50.0 °F - 50.0 °F 100% 29.31 in 3.0 mi East 21.9 mph 41.4 mph N/A Rain Light Rain
9:55 AM 50.4 °F - 50.4 °F 100% 29.32 in 4.0 mi East 18.4 mph 28.8 mph N/A   Overcast
10:15 AM 50.4 °F - 50.4 °F 100% 29.32 in 3.0 mi East 20.7 mph 26.5 mph N/A   Overcast
10:35 AM 50.0 °F - 50.0 °F 100% 29.32 in 3.0 mi East 18.4 mph 27.6 mph N/A   Overcast
10:55 AM 50.0 °F - 50.0 °F 100% 29.32 in 1.5 mi East 21.9 mph 27.6 mph N/A   Overcast
11:15 AM 50.0 °F - 50.0 °F 100% 29.32 in 1.8 mi East 19.6 mph 28.8 mph N/A Rain Light Rain
11:35 AM 50.2 °F - 50.2 °F 100% 29.32 in 1.5 mi East 20.7 mph 33.4 mph N/A Rain Light Rain
12:15 PM 50.4 °F - 50.4 °F 100% 29.33 in 2.5 mi East 17.3 mph 29.9 mph N/A   Overcast
12:35 PM 50.2 °F - 50.2 °F 100% 29.33 in 2.0 mi East 17.3 mph 28.8 mph N/A   Overcast
12:55 PM 50.5 °F - 50.5 °F 100% 29.32 in 1.5 mi East 18.4 mph 23.0 mph N/A   Overcast
1:15 PM 50.5 °F - 50.5 °F 100% 29.31 in 1.5 mi East 18.4 mph 25.3 mph N/A   Overcast
1:35 PM 50.4 °F - 50.4 °F 100% 29.31 in 1.2 mi East 23.0 mph 29.9 mph N/A   Overcast
1:55 PM 50.5 °F - 50.5 °F 100% 29.32 in 1.2 mi East 16.1 mph 27.6 mph N/A   Overcast
2:15 PM 50.4 °F - 50.4 °F 100% 29.33 in 1.5 mi East 17.3 mph 29.9 mph N/A   Overcast
2:35 PM 50.4 °F - 50.4 °F 100% 29.33 in 1.2 mi East 20.7 mph 26.5 mph N/A   Overcast
2:55 PM 50.5 °F - 50.5 °F 100% 29.33 in 1.5 mi East 17.3 mph 28.8 mph N/A   Overcast
3:35 PM 50.2 °F - 50.2 °F 100% 29.34 in 1.5 mi East 15.0 mph 25.3 mph N/A Thunderstorm Overcast
4:15 PM 49.5 °F - 49.5 °F 100% 29.34 in 1.5 mi East 18.4 mph 27.6 mph N/A   Overcast
4:35 PM 49.5 °F - 49.5 °F 100% 29.36 in 1.5 mi East 16.1 mph 25.3 mph N/A Rain , Thunderstorm Light Thunderstorms and Rain
4:55 PM 49.1 °F - 49.1 °F 100% 29.38 in 1.2 mi East 15.0 mph 23.0 mph 0.05 in Rain , Thunderstorm Light Thunderstorms and Rain
5:15 PM 49.3 °F - 49.3 °F 100% 29.38 in 2.5 mi ENE 13.8 mph 19.6 mph 0.01 in Rain Light Rain
5:35 PM 49.3 °F - 49.3 °F 100% 29.38 in 7.0 mi ENE 11.5 mph 17.3 mph 0.02 in Rain , Thunderstorm Rain
5:55 PM 49.3 °F - 49.3 °F 100% 29.37 in 5.0 mi ENE 16.1 mph 21.9 mph 0.03 in Rain Light Rain
6:15 PM 49.5 °F - 49.5 °F 100% 29.37 in 10.0 mi ENE 16.1 mph 24.2 mph N/A   Overcast
6:35 PM 49.1 °F - 49.1 °F 100% 29.38 in 10.0 mi ENE 16.1 mph 23.0 mph N/A   Overcast
6:55 PM 48.6 °F - 48.6 °F 100% 29.40 in 5.0 mi ENE 24.2 mph 29.9 mph N/A   Overcast
7:15 PM 48.2 °F - 48.2 °F 100% 29.40 in 2.5 mi ENE 20.7 mph 33.4 mph N/A   Overcast
7:35 PM 47.8 °F - 47.8 °F 100% 29.41 in 4.0 mi East 18.4 mph 26.5 mph N/A   Overcast
7:55 PM 47.3 °F - 47.3 °F 100% 29.42 in 2.5 mi ENE 18.4 mph 26.5 mph N/A Rain Light Rain
8:15 PM 46.9 °F - 46.9 °F 100% 29.42 in 2.5 mi East 19.6 mph 27.6 mph N/A Rain Rain
8:35 PM 46.4 °F 39.0 °F 46.4 °F 100% 29.43 in 5.0 mi ENE 19.6 mph 26.5 mph N/A Rain Light Rain
8:55 PM 46.0 °F 39.9 °F 46.0 °F 100% 29.43 in 7.0 mi ENE 13.8 mph 21.9 mph N/A   Overcast
9:15 PM 45.9 °F 38.8 °F 45.9 °F 100% 29.45 in 10.0 mi ENE 17.3 mph 27.6 mph N/A   Overcast
9:35 PM 45.5 °F 38.3 °F 45.3 °F 99% 29.45 in 10.0 mi ENE 17.3 mph 28.8 mph N/A   Overcast
9:55 PM 45.1 °F 37.6 °F 45.1 °F 100% 29.46 in 10.0 mi ENE 18.4 mph 25.3 mph N/A   Overcast
10:15 PM 45.0 °F 37.4 °F 45.0 °F 100% 29.47 in 7.0 mi NE 18.4 mph 24.2 mph N/A   Overcast
10:35 PM 44.6 °F 38.4 °F 44.6 °F 100% 29.47 in 3.0 mi NE 12.7 mph 21.9 mph N/A   Overcast
10:55 PM 44.6 °F 38.1 °F 44.6 °F 100% 29.47 in 5.0 mi NE 13.8 mph 21.9 mph N/A   Overcast
11:15 PM 44.6 °F 39.7 °F 44.6 °F 100% 29.47 in 5.0 mi NE 9.2 mph - N/A   Overcast
11:35 PM 44.6 °F 38.1 °F 44.6 °F 100% 29.46 in 7.0 mi NE 13.8 mph 18.4 mph N/A   Overcast
11:55 PM 44.6 °F 38.4 °F 44.6 °F 100% 29.46 in 10.0 mi NE 12.7 mph 18.4 mph N/A   Overcast